Location: Biharia
(46.4333°N, 22.8000°E)
Time: 11:27:31
(UTC+00:00)

Cosmos 2227 Rocket - Pass Details

Date: 16 October 2021
Orbit: 839 x 845 km, 71.0° (Epoch: 03 December)

Event Time Altitude Azimuth Distance (km) Brightness Sun altitude
Rises 15:59:43 0° 333° (NNW) 3,415 5.6 -4.1°
Reaches altitude 10° 16:02:11 10° 334° (NNW) 2,476 4.9 -4.5°
Maximum altitude 16:07:53 84° 63° (ENE) 855 2.2 -5.5°
Drops below altitude 10° 16:13:32 10° 153° (SSE) 2,457 4.4 -6.5°
Sets 16:15:58 0° 154° (SSE) 3,387 5.1 -6.9°
